Location: El Centro
(32.7920°N, 115.5620°W)
Time: 08:52:13
(UTC-08:00)

Hamsat - Visible Passes

Search period start: 28 November 2014 00:00
Search period end: 08 December 2014 00:00
Orbit: 593 x 626 km, 97.6° (Epoch: 27 November)

Date Brightness Start Highest point End Pass type
(mag) Time Alt. Az. Time Alt. Az. Time Alt. Az.
28 Nov ? 05:40:26 10° N 05:44:43 59° WNW 05:48:59 10° SSW visible
29 Nov ? 04:20:26 10° ENE 04:22:41 14° E 04:24:55 10° SE visible
29 Nov ? 05:54:39 10° N 05:58:42 39° WNW 06:02:45 10° SW visible
30 Nov ? 04:33:34 10° NE 04:36:49 20° E 04:40:03 10° SE visible
30 Nov ? 16:56:56 10° S 17:01:05 66° W 17:05:19 10° NNW visible
01 Dec ? 04:47:05 10° NE 04:50:55 30° E 04:54:43 10° SSE visible
01 Dec ? 17:11:09 10° S 17:15:08 43° W 17:19:11 10° NNW visible
02 Dec ? 05:00:49 10° NNE 05:04:59 44° E 05:09:08 10° S visible
02 Dec ? 17:25:33 10° SSW 17:29:12 28° W 17:32:53 10° NW visible
03 Dec ? 05:14:41 10° NNE 05:19:01 67° E 05:23:20 10° S visible
03 Dec ? 17:40:14 10° SW 17:43:17 19° W 17:46:22 10° NW visible
04 Dec ? 05:28:39 10° N 05:33:01 81° WNW 05:37:21 10° SSW visible
04 Dec ? 17:55:23 10° WSW 17:57:23 13° W 17:59:23 10° WNW visible
05 Dec ? 05:42:44 10° N 05:46:59 53° WNW 05:51:12 10° SSW visible
06 Dec ? 04:22:24 10° ENE 04:24:55 15° E 04:27:26 10° SE visible
06 Dec ? 05:56:56 10° N 06:00:55 36° WNW 06:04:53 10° SW visible
07 Dec ? 04:35:36 10° NE 04:39:00 22° E 04:42:22 10° SSE visible
07 Dec ? 16:59:01 10° S 17:03:11 60° W 17:07:25 10° NNW visible
